Find Starlink 32731

NORAD ID: 62493 Int'l Des: 2025-003 Owner: SPXS Country: US Constellation: starlink operational
LEOCIRCULAR

Live-Position

3D-Globus wird geladen...

Über Starlink 32731

Beschreibung wird geladen...

Nächste Überflüge

Passes for default location (London). Set your location on the main map for personalized predictions.

Höhenverlauf

Loading altitude history...

Zweizeiliger Elementsatz

1 62493U 25003G 26124.57137663 .00026333 00000-0 96301-3 0 9996
2 62493 43.0016 333.7524 0001441 261.9317 98.1372 15.27580164 75210
Epoch: 4. Mai 2026 • Age: 10 hours

Aktueller Status

Höhe 485.9 km
Geschwindigkeit 7.63 km/s
Subsatellitenpunkt 38.16°N, 122.84°W
Startdatum 6. Jan. 2025
Alter 1.3 years
Typ internet

Technische Details

Klassifizierung Payload
Masse 730.00 kg
Trockenmasse 700.00 kg
Gesamtmasse 730.00 kg
Länge 0.30 m
Durchmesser 4.10 m
Spannweite 29.00 m
Form Box + pan
Hersteller SPXS
Bus-Typ Starlink V2M
Phasenstatus In Orbit
Besitzer/Staat SPXS/US

Most Searched